Location: Home
(42.5358°N, 72.7383°W)
Time: 16:56:34
(UTC-04:00)

Kosmos-337 - Pass Details

Date: 09 July 2022
Orbit: 1467 x 1552 km, 74.0° (Epoch: 18 August)

Event Time Altitude Azimuth Distance (km) Brightness Sun altitude
Rises 02:24:56 0° 333° (NNW) 4,728 ? -22.0°
Reaches altitude 10° 02:28:11 10° 326° (NW) 3,736 ? -21.7°
Maximum altitude 02:36:14 37° 264° (W) 2,218 ? -21.1°
Enters shadow 02:39:33 29° 226° (SW) 2,529 ? -20.9°
